Beach, ND

8:23 AM MDT on March 26, 2017 (GMT -0600)
Beach

Weather History for K20U - December, 2012

Change the Weather History Date:

Thursday, December 6, 2012

  Actual Average (KGDV) Record (KGDV)
Temperature  
Mean Temperature 30 °F -  
Max Temperature 39 °F 33 °F 51 °F (2015)
Min Temperature 21 °F 14 °F -4 °F (2005)
Degree Days  
Heating Degree Days 35    
Moisture  
Dew Point 17 °F    
Average Humidity 61    
Maximum Humidity 86    
Minimum Humidity 36    
Precipitation  
Precipitation 0.00 in - - ()
Sea Level Pressure  
Sea Level Pressure 29.93 in    
Wind  
Wind Speed 12 mph (West)    
Max Wind Speed 20 mph    
Max Gust Speed 25 mph    
Visibility 10 miles    
Events      
Averages and records for this station are not official NWS values.
T = Trace of Precipitation, MM = Missing Value Source: NWS Daily Summary

Daily Weather History Graph

Daily Weather History Graph

Search for Another Location

Airport or City:

Trip Planner

Search our weather history database for the weather conditions in past years. The results will help you decide how hot, cold, wet, or windy it might be!

Date:

Astronomy

Dec. 06, 2012 Rise Set
Actual Time 7:26 AM MST 4:07 PM MST
Civil Twilight 6:51 AM MST 4:42 PM MST
Nautical Twilight 6:13 AM MST 5:20 PM MST
Astronomical Twilight 5:36 AM MST 5:57 PM MST
Moon No Moon Rise 11:58 AM MST (12/6)
Length of Visible Light 9h 50m
Length of Day
8h 40m
Waning Gibbous, 48% of the Moon is Illuminated
Dec 6
Waning Gibbous
Dec 13
New
Dec 19
First Quarter
Dec 28
Full
Jan 4
Last Quarter

Hourly Weather History & Observations

Time (MST) Temp. Windchill Dew Point Humidity Pressure Visibility Wind Dir Wind Speed Gust Speed Precip Events Conditions
12:15 AM 32.0 °F 21.2 °F 17.6 °F 55% 29.87 in 10.0 mi West 16.1 mph 19.6 mph N/A   Clear
12:35 AM 32.0 °F 21.2 °F 17.6 °F 55% 29.89 in 10.0 mi West 16.1 mph 20.7 mph N/A   Clear
12:55 AM 32.0 °F 21.6 °F 17.6 °F 55% 29.89 in 10.0 mi West 15.0 mph 24.2 mph N/A   Clear
1:15 AM 32.0 °F 20.5 °F 17.6 °F 55% 29.89 in 10.0 mi WNW 18.4 mph 25.3 mph N/A   Clear
1:35 AM 32.0 °F 20.5 °F 17.6 °F 55% 29.91 in 10.0 mi WNW 18.4 mph 24.2 mph N/A   Clear
1:55 AM 32.0 °F 20.8 °F 17.6 °F 55% 29.92 in 10.0 mi WNW 17.3 mph 25.3 mph N/A   Clear
2:15 AM 32.0 °F 20.5 °F 17.6 °F 55% 29.93 in 10.0 mi WNW 18.4 mph 24.2 mph N/A   Clear
2:35 AM 32.0 °F 21.6 °F 17.6 °F 55% 29.94 in 10.0 mi WNW 15.0 mph 23.0 mph N/A   Clear
2:55 AM 30.2 °F 18.9 °F 19.4 °F 64% 29.94 in 10.0 mi WNW 16.1 mph - N/A   Clear
3:15 AM 28.4 °F 16.6 °F 19.4 °F 69% 29.95 in 10.0 mi WNW 16.1 mph - N/A   Clear
3:35 AM 28.4 °F 17.0 °F 19.4 °F 69% 29.95 in 10.0 mi WNW 15.0 mph 21.9 mph N/A   Clear
3:55 AM 28.4 °F 18.0 °F 19.4 °F 69% 29.95 in 10.0 mi WNW 12.7 mph - N/A   Clear
4:15 AM 26.6 °F 16.2 °F 19.4 °F 74% 29.95 in 10.0 mi WNW 11.5 mph 18.4 mph N/A   Clear
4:35 AM 26.6 °F 16.8 °F 19.4 °F 74% 29.96 in 10.0 mi WNW 10.4 mph - N/A   Clear
5:15 AM 24.8 °F 14.0 °F 17.6 °F 74% 29.95 in 10.0 mi WNW 11.5 mph - N/A   Clear
5:35 AM 26.6 °F 15.2 °F 17.6 °F 69% 29.95 in 10.0 mi WNW 13.8 mph - N/A   Clear
5:55 AM 26.6 °F 14.7 °F 17.6 °F 69% 29.96 in 10.0 mi WNW 15.0 mph - N/A   Clear
6:15 AM 26.6 °F 15.7 °F 17.6 °F 69% 29.96 in 10.0 mi WNW 12.7 mph - N/A   Clear
6:35 AM 26.6 °F 16.2 °F 17.6 °F 69% 29.97 in 10.0 mi WNW 11.5 mph - N/A   Clear
6:55 AM 26.6 °F 16.2 °F 17.6 °F 69% 29.97 in 10.0 mi WNW 11.5 mph - N/A   Clear
7:15 AM 24.8 °F 16.1 °F 17.6 °F 74% 29.97 in 10.0 mi West 8.1 mph - N/A   Clear
7:35 AM 23.0 °F 14.7 °F 17.6 °F 80% 29.97 in 10.0 mi West 6.9 mph - N/A   Clear
8:15 AM 21.2 °F 12.6 °F 17.6 °F 86% 29.99 in 10.0 mi South 6.9 mph - N/A   Clear
8:35 AM 23.0 °F - 17.6 °F 80% 29.99 in 10.0 mi Calm Calm - N/A   Clear
8:55 AM 24.8 °F - 17.6 °F 74% 30.00 in 10.0 mi Calm Calm - N/A   Clear
9:15 AM 26.6 °F 20.0 °F 19.4 °F 74% 29.99 in 10.0 mi WSW 5.8 mph - N/A   Clear
9:35 AM 28.4 °F 21.2 °F 19.4 °F 69% 30.00 in 10.0 mi West 6.9 mph - N/A   Clear
9:55 AM 30.2 °F 22.6 °F 19.4 °F 64% 30.00 in 10.0 mi WSW 8.1 mph - N/A   Clear
10:15 AM 32.0 °F 24.8 °F 19.4 °F 60% 30.00 in 10.0 mi WSW 8.1 mph - N/A   Clear
10:35 AM 32.0 °F 23.6 °F 19.4 °F 60% 30.00 in 10.0 mi WSW 10.4 mph - N/A   Clear
10:55 AM 32.0 °F 23.6 °F 19.4 °F 60% 29.99 in 10.0 mi WSW 10.4 mph - N/A   Clear
11:15 AM 32.0 °F 23.0 °F 17.6 °F 55% 29.98 in 10.0 mi WSW 11.5 mph - N/A   Clear
11:35 AM 35.6 °F 27.5 °F 17.6 °F 48% 29.97 in 10.0 mi WSW 11.5 mph 18.4 mph N/A   Clear
11:55 AM 35.6 °F 26.6 °F 15.8 °F 44% 29.96 in 10.0 mi West 13.8 mph - N/A   Clear
12:15 PM 35.6 °F 26.2 °F 14.0 °F 41% 29.96 in 10.0 mi West 15.0 mph - N/A   Partly Cloudy
12:35 PM 35.6 °F 26.2 °F 14.0 °F 41% 29.96 in 10.0 mi West 15.0 mph 21.9 mph N/A   Clear
12:55 PM 37.4 °F 28.9 °F 14.0 °F 38% 29.95 in 10.0 mi West 13.8 mph 17.3 mph N/A   Clear
1:15 PM 37.4 °F 27.8 °F 14.0 °F 38% 29.94 in 10.0 mi West 17.3 mph 24.2 mph N/A   Scattered Clouds
1:35 PM 39.2 °F 30.8 °F 14.0 °F 36% 29.93 in 10.0 mi West 15.0 mph 20.7 mph N/A   Partly Cloudy
1:55 PM 37.4 °F 27.2 °F 14.0 °F 38% 29.93 in 10.0 mi West 19.6 mph 25.3 mph N/A   Clear
2:15 PM 37.4 °F 27.8 °F 14.0 °F 38% 29.93 in 10.0 mi West 17.3 mph 24.2 mph N/A   Clear
2:35 PM 37.4 °F 27.5 °F 14.0 °F 38% 29.93 in 10.0 mi West 18.4 mph 21.9 mph N/A   Clear
2:55 PM 35.6 °F 27.5 °F 15.8 °F 44% 29.92 in 10.0 mi West 11.5 mph - N/A   Clear
3:15 PM 35.6 °F 28.0 °F 15.8 °F 44% 29.92 in 10.0 mi West 10.4 mph - N/A   Clear
3:35 PM 33.8 °F 28.6 °F 15.8 °F 48% 29.91 in 10.0 mi WSW 5.8 mph - N/A   Clear
3:55 PM 32.0 °F 25.6 °F 15.8 °F 51% 29.91 in 10.0 mi WSW 6.9 mph - N/A   Clear
4:15 PM 32.0 °F 24.8 °F 15.8 °F 51% 29.91 in 10.0 mi WSW 8.1 mph - N/A   Clear
4:35 PM 32.0 °F 24.8 °F 15.8 °F 51% 29.91 in 10.0 mi WSW 8.1 mph - N/A   Clear
4:55 PM 32.0 °F 25.6 °F 15.8 °F 51% 29.91 in 10.0 mi WSW 6.9 mph - N/A   Scattered Clouds
5:15 PM 26.6 °F 20.0 °F 15.8 °F 64% 29.91 in 10.0 mi SSW 5.8 mph - N/A   Overcast
5:35 PM 26.6 °F 20.0 °F 15.8 °F 64% 29.91 in 10.0 mi SW 5.8 mph - N/A   Overcast
5:55 PM 26.6 °F 20.0 °F 15.8 °F 64% 29.91 in 10.0 mi SW 5.8 mph - N/A   Overcast
6:15 PM 26.6 °F 18.2 °F 15.8 °F 64% 29.91 in 10.0 mi SW 8.1 mph - N/A   Overcast
6:35 PM 26.6 °F 18.2 °F 15.8 °F 64% 29.91 in 10.0 mi WSW 8.1 mph - N/A   Overcast
6:55 PM 28.4 °F 19.7 °F 15.8 °F 59% 29.91 in 10.0 mi SW 9.2 mph - N/A   Overcast
7:35 PM 26.6 °F 19.1 °F 15.8 °F 64% 29.91 in 10.0 mi SW 6.9 mph - N/A   Partly Cloudy
7:55 PM 26.6 °F 21.2 °F 15.8 °F 64% 29.90 in 10.0 mi SW 4.6 mph - N/A   Partly Cloudy
8:15 PM 24.8 °F 19.1 °F 15.8 °F 69% 29.90 in 10.0 mi West 4.6 mph - N/A   Mostly Cloudy
8:35 PM 24.8 °F 20.5 °F 15.8 °F 69% 29.91 in 10.0 mi NE 3.5 mph - N/A   Overcast
8:55 PM 21.2 °F - 15.8 °F 80% 29.91 in 10.0 mi Calm Calm - N/A   Overcast
9:15 PM 23.0 °F 18.4 °F 15.8 °F 74% 29.90 in 10.0 mi SW 3.5 mph - N/A   Overcast
9:35 PM 23.0 °F 17.0 °F 15.8 °F 74% 29.90 in 10.0 mi SW 4.6 mph - N/A   Overcast
9:55 PM 24.8 °F 16.9 °F 15.8 °F 69% 29.90 in 10.0 mi SW 6.9 mph - N/A   Overcast
10:15 PM 24.8 °F 16.1 °F 15.8 °F 69% 29.90 in 10.0 mi WSW 8.1 mph - N/A   Overcast
10:35 PM 24.8 °F 17.9 °F 17.6 °F 74% 29.90 in 10.0 mi WSW 5.8 mph - N/A   Overcast
10:55 PM 26.6 °F 19.1 °F 17.6 °F 69% 29.90 in 10.0 mi WSW 6.9 mph - N/A   Overcast
11:15 PM 26.6 °F 19.1 °F 17.6 °F 69% 29.90 in 10.0 mi WSW 6.9 mph - N/A   Overcast
11:35 PM 26.6 °F 20.0 °F 17.6 °F 69% 29.90 in 10.0 mi SW 5.8 mph - N/A   Overcast
11:55 PM 26.6 °F 19.1 °F 17.6 °F 69% 29.89 in 10.0 mi SW 6.9 mph - N/A   Overcast